Find OneWeb SL0258

NORAD ID: 48976 Int'l Des: 2021-060 Owner: ONEWEBN Country: UK Constellation: oneweb operational
LEOCIRCULARPOLARONEWEB_TYPE

当前视图

正在加载3D地球...

About OneWeb SL0258

OneWeb SL0258 (NORAD 48976) is a oneweb constellation satellite launched Jul 1, 2021 by ONEWEBN of UK. It operates in LEO, CIRCULAR, POLAR, ONEWEB_TYPE orbit with a mass of 148.00 kg.

关于 OneWeb SL0258

正在加载描述...

即将过境

Passes for default location (London). Set your location on the main map for personalized predictions.

高度历史

Loading altitude history...

两行轨道根数

1 48976U 21060K 26177.67996618 -.00000030 00000-0 -11194-3 0 9992
2 48976 87.9094 226.8984 0002119 97.8783 262.2588 13.16595012240841
Epoch: Jun 26, 2026 • Age: 9 hours

当前状态

高度 1227.4 km
速度 7.24 km/s
星下点 -79.47°S, 129°E
发射日期 Jul 1, 2021
运行时间 4.9 years
类型 internet

技术详情

分类 Payload
质量 148.00 kg
干质量 140.00 kg
总质量 148.00 kg
长度 1.30 m
直径 1.00 m
跨度 5.00 m
形状 Trapezoid+2 pan
制造商 ONEWUS
平台类型 ARROW
阶段状态 In Orbit
所有者/国家 ONEWEBN/UK

Most Searched